| time (UTC) | temp F | wind direction | speed knots | gust knots | rain 1hr in | rain 24hr in | rain mn in | humidity % | barometer mb |
| 20260506154533 | 49 | 132 | 0.0 | 1.7 | 0.00 | 0.02 | 0.01 | 95 | 1020.1 |
| 20260506153032 | 49 | 0 | 0.0 | 0.9 | 0.00 | 0.02 | 0.01 | 95 | 1019.9 |
| 20260506151533 | 48 | 132 | 0.0 | 0.9 | 0.00 | 0.02 | 0.01 | 95 | 1020.0 |
| 20260506150039 | 48 | 0 | 0.0 | 0.0 | 0.00 | 0.02 | 0.01 | 95 | 1019.8 |
| 20260506144534 | 48 | 0 | 0.0 | 2.6 | 0.00 | 0.02 | 0.01 | 95 | 1019.8 |
| 20260506143037 | 48 | 0 | 0.0 | 0.0 | 0.00 | 0.02 | 0.01 | 95 | 1019.8 |
| 20260506141540 | 48 | 0 | 0.0 | 0.9 | 0.00 | 0.02 | 0.01 | 95 | 1019.8 |
| 20260506140034 | 48 | 0 | 0.0 | 0.9 | 0.00 | 0.02 | 0.01 | 95 | 1019.5 |
| 20260506134530 | 47 | 0 | 0.0 | 0.9 | 0.00 | 0.02 | 0.01 | 95 | 1019.5 |
| 20260506133030 | 47 | 0 | 0.0 | 0.9 | 0.00 | 0.02 | 0.01 | 95 | 1019.4 |
| 20260506131533 | 47 | 0 | 0.0 | 0.9 | 0.00 | 0.02 | 0.01 | 95 | 1019.3 |
| 20260506130033 | 48 | 0 | 0.0 | 0.9 | 0.00 | 0.02 | 0.01 | 95 | 1019.2 |
| 20260506124534 | 48 | 0 | 0.0 | 0.0 | 0.00 | 0.03 | 0.01 | 95 | 1019.3 |
| 20260506123030 | 48 | 0 | 0.0 | 0.0 | 0.00 | 0.03 | 0.01 | 95 | 1019.1 |
| 20260506121530 | 48 | 0 | 0.0 | 0.0 | 0.00 | 0.03 | 0.01 | 95 | 1019.0 |
| 20260506120051 | 48 | 0 | 0.0 | 0.9 | 0.00 | 0.03 | 0.01 | 95 | 1018.9 |
| 20260506114534 | 48 | 132 | 0.0 | 0.9 | 0.01 | 0.03 | 0.01 | 95 | 1018.8 |
| 20260506113034 | 48 | 0 | 0.0 | 0.0 | 0.01 | 0.03 | 0.01 | 95 | 1018.7 |
| 20260506111531 | 47 | 0 | 0.0 | 0.9 | 0.01 | 0.03 | 0.01 | 95 | 1018.7 |
| 20260506110032 | 47 | 0 | 0.0 | 0.0 | 0.01 | 0.03 | 0.01 | 95 | 1018.6 |
| 20260506104539 | 47 | 0 | 0.0 | 0.0 | 0.00 | 0.02 | 0.00 | 95 | 1018.4 |
| 20260506103043 | 47 | 0 | 0.0 | 0.0 | 0.00 | 0.02 | 0.00 | 95 | 1018.3 |
| 20260506101532 | 47 | 0 | 0.0 | 0.0 | 0.00 | 0.02 | 0.00 | 95 | 1018.2 |
| 20260506100031 | 47 | 0 | 0.0 | 0.0 | 0.00 | 0.02 | 0.00 | 95 | 1018.2 |
| 20260506094534 | 47 | 0 | 0.0 | 0.0 | 0.00 | 0.02 | 0.00 | 95 | 1018.3 |
| 20260506093031 | 47 | 0 | 0.0 | 0.0 | 0.00 | 0.02 | 0.00 | 95 | 1018.1 |
| 20260506091530 | 47 | 0 | 0.0 | 0.0 | 0.00 | 0.02 | 0.00 | 95 | 1018.1 |
| 20260506090031 | 47 | 0 | 0.0 | 0.0 | 0.00 | 0.02 | 0.00 | 95 | 1018.2 |
| 20260506084608 | 47 | 0 | 0.0 | 0.9 | 0.00 | 0.02 | 0.00 | 95 | 1018.3 |
| 20260506083037 | 47 | 0 | 0.0 | 0.9 | 0.00 | 0.02 | 0.00 | 95 | 1018.3 |
| 20260506081540 | 47 | 0 | 0.0 | 0.9 | 0.00 | 0.02 | 0.00 | 95 | 1018.4 |
| 20260506073034 | 48 | 0 | 0.0 | 0.0 | 0.00 | 0.02 | 0.00 | 95 | 1018.0 |
| 20260506071535 | 48 | 0 | 0.0 | 0.0 | 0.00 | 0.02 | 0.00 | 95 | 1018.0 |
| 20260506061530 | 47 | 0 | 0.0 | 0.9 | 0.00 | 0.02 | 0.02 | 95 | 1017.5 |
| 20260506044538 | 48 | 132 | 0.0 | 2.6 | 0.00 | 0.02 | 0.02 | 95 | 1016.8 |
| 20260506043038 | 48 | 133 | 0.0 | 1.7 | 0.00 | 0.02 | 0.02 | 95 | 1016.7 |
| 20260506041533 | 48 | 133 | 0.0 | 1.7 | 0.00 | 0.02 | 0.02 | 95 | 1016.6 |
| 20260506040036 | 48 | 0 | 0.0 | 1.7 | 0.00 | 0.02 | 0.02 | 95 | 1016.4 |
| 20260506034533 | 48 | 133 | 0.9 | 2.6 | 0.00 | 0.02 | 0.02 | 95 | 1016.3 |
| 20260506033036 | 47 | 133 | 0.0 | 1.7 | 0.00 | 0.02 | 0.02 | 95 | 1016.1 |
| 20260506031540 | 47 | 134 | 0.0 | 1.7 | 0.00 | 0.02 | 0.02 | 95 | 1015.8 |
| 20260506030032 | 47 | 0 | 0.0 | 2.6 | 0.00 | 0.02 | 0.02 | 95 | 1015.8 |
| 20260506024537 | 47 | 133 | 0.0 | 0.9 | 0.00 | 0.02 | 0.02 | 95 | 1015.7 |
| 20260506023050 | 47 | 133 | 0.0 | 2.6 | 0.00 | 0.02 | 0.02 | 95 | 1015.5 |
| 20260506021552 | 48 | 0 | 0.0 | 2.6 | 0.00 | 0.02 | 0.02 | 95 | 1015.5 |
| 20260506020035 | 48 | 182 | 0.9 | 2.6 | 0.00 | 0.02 | 0.02 | 95 | 1015.3 |
| 20260506014534 | 48 | 0 | 0.0 | 1.7 | 0.00 | 0.02 | 0.02 | 94 | 1015.4 |
| 20260506013035 | 48 | 0 | 0.0 | 0.9 | 0.00 | 0.02 | 0.02 | 94 | 1015.5 |
| 20260506011531 | 48 | 182 | 0.0 | 1.7 | 0.00 | 0.02 | 0.02 | 94 | 1015.3 |
| 20260506010032 | 48 | 182 | 0.0 | 3.5 | 0.00 | 0.02 | 0.02 | 94 | 1015.1 |
| 20260506004534 | 48 | 182 | 0.9 | 1.7 | 0.00 | 0.02 | 0.02 | 94 | 1014.9 |
| 20260506003035 | 48 | 0 | 0.0 | 1.7 | 0.00 | 0.02 | 0.02 | 94 | 1014.9 |
| 20260506001536 | 48 | 0 | 0.0 | 0.9 | 0.00 | 0.02 | 0.02 | 94 | 1014.7 |
| 20260506000032 | 48 | 182 | 0.0 | 0.9 | 0.00 | 0.02 | 0.02 | 94 | 1014.7 |
| 20260505234532 | 48 | 0 | 0.0 | 0.9 | 0.01 | 0.02 | 0.02 | 94 | 1014.6 |
| 20260505233035 | 48 | 0 | 0.0 | 0.9 | 0.01 | 0.02 | 0.02 | 94 | 1014.6 |
| 20260505231546 | 48 | 0 | 0.0 | 0.9 | 0.01 | 0.02 | 0.02 | 94 | 1014.6 |
| 20260505230035 | 47 | 0 | 0.0 | 0.9 | 0.01 | 0.02 | 0.02 | 94 | 1014.7 |
| 20260505224535 | 47 | 0 | 0.0 | 0.9 | 0.00 | 0.01 | 0.01 | 94 | 1014.6 |
| 20260505223034 | 47 | 0 | 0.0 | 2.6 | 0.00 | 0.01 | 0.01 | 94 | 1014.7 |
| 20260505221534 | 48 | 0 | 0.0 | 1.7 | 0.00 | 0.01 | 0.01 | 94 | 1014.7 |
| 20260505220034 | 48 | 0 | 0.0 | 1.7 | 0.00 | 0.01 | 0.01 | 94 | 1014.7 |
| 20260505214548 | 48 | 0 | 0.0 | 1.7 | 0.00 | 0.01 | 0.01 | 94 | 1014.7 |
| 20260505213039 | 48 | 179 | 0.0 | 1.7 | 0.00 | 0.01 | 0.01 | 94 | 1014.7 |
| 20260505211535 | 47 | 0 | 0.0 | 1.7 | 0.00 | 0.01 | 0.01 | 94 | 1014.8 |
| 20260505210031 | 48 | 0 | 0.0 | 1.7 | 0.00 | 0.01 | 0.01 | 93 | 1014.7 |
| 20260505204531 | 48 | 0 | 0.0 | 1.7 | 0.00 | 0.01 | 0.01 | 93 | 1014.6 |
| 20260505203050 | 47 | 0 | 0.0 | 0.9 | 0.00 | 0.01 | 0.01 | 93 | 1014.6 |
| 20260505201540 | 47 | 0 | 0.0 | 1.7 | 0.00 | 0.01 | 0.01 | 93 | 1014.5 |
| 20260505200038 | 47 | 0 | 0.0 | 6.1 | 0.00 | 0.01 | 0.01 | 93 | 1014.6 |
| 20260505194533 | 47 | 208 | 0.0 | 2.6 | 0.00 | 0.01 | 0.01 | 93 | 1014.6 |
| 20260505193033 | 47 | 151 | 0.0 | 1.7 | 0.00 | 0.01 | 0.01 | 93 | 1014.5 |
| 20260505191533 | 47 | 0 | 0.0 | 1.7 | 0.00 | 0.01 | 0.01 | 94 | 1014.5 |
| 20260505190034 | 47 | 151 | 0.9 | 2.6 | 0.00 | 0.01 | 0.01 | 94 | 1014.4 |
| 20260505184536 | 47 | 0 | 0.0 | 2.6 | 0.00 | 0.01 | 0.01 | 94 | 1014.4 |
| 20260505183033 | 47 | 0 | 0.0 | 2.6 | 0.00 | 0.01 | 0.01 | 94 | 1014.4 |
| 20260505181540 | 46 | 0 | 0.0 | 1.7 | 0.00 | 0.01 | 0.01 | 94 | 1014.3 |
| 20260505180033 | 47 | 0 | 0.0 | 2.6 | 0.00 | 0.01 | 0.01 | 94 | 1014.2 |
| 20260505174540 | 47 | 0 | 0.9 | 2.6 | 0.00 | 0.01 | 0.01 | 94 | 1014.0 |
| 20260505173034 | 47 | 178 | 0.0 | 1.7 | 0.00 | 0.01 | 0.01 | 94 | 1013.9 |
| 20260505171535 | 46 | 178 | 0.0 | 1.7 | 0.00 | 0.01 | 0.01 | 94 | 1013.9 |
| 20260505170036 | 46 | 0 | 0.0 | 0.9 | 0.00 | 0.01 | 0.01 | 94 | 1013.8 |
| 20260505164533 | 45 | 178 | 0.0 | 1.7 | 0.00 | 0.01 | 0.01 | 94 | 1013.8 |
| 20260505163053 | 45 | 0 | 0.0 | 3.5 | 0.00 | 0.01 | 0.01 | 94 | 1013.7 |
| 20260505161533 | 45 | 155 | 0.9 | 2.6 | 0.00 | 0.01 | 0.01 | 95 | 1013.8 |